This demonstration page uses our WeatherBlox Daily Observations layout. Learn more.

Left ArrowRight Arrow

Hourly Observations for June 18, 2021

Temp ( °F °C ) Dew Point ( °F °C ) Humidity (%) Winds ( mph kmh ) Pressure ( in mb ) Visibility ( mi km ) Precip ( " mm )
12:53 am 00:53 Clear 67 19.4 61 16.1 81 81 Calm 30.06 1018 10 16 0.00 0.00
1:53 am 01:53 Clear 66 18.9 61 16.1 84 84 Calm 30.05 1018 10 16 0.00 0.00
2:53 am 02:53 Clear 65 18.3 60 15.6 84 84 Calm 30.05 1018 10 16 0.00 0.00
3:53 am 03:53 Partly Cloudy 64 17.8 61 16.1 90 90 Calm 30.04 1017 10 16 0.00 0.00
4:53 am 04:53 Mostly Cloudy 63 17.2 60 15.6 90 90 Calm 30.04 1017 10 16 0.00 0.00
5:53 am 05:53 Clear 64 17.8 60 15.6 87 87 Calm 30.04 1017 10 16 0.00 0.00
6:53 am 06:53 Sunny 63 17.2 60 15.6 90 90 NNE 3 6 30.06 1018 10 16 0.00 0.00
7:53 am 07:53 Mostly Sunny 67 19.4 61 16.1 81 81 Calm 30.06 1018 10 16 0.00 0.00
8:53 am 08:53 Mostly Cloudy 72 22.2 63 17.2 73 73 VRB 3 6 30.06 1018 10 16 0.00 0.00
9:53 am 09:53 Sunny 79 26.1 63 17.2 58 58 Calm 30.06 1018 10 16 0.00 0.00
10:53 am 10:53 Sunny 86 30 63 17.2 46 46 NE 3 6 30.06 1018 10 16 0.00 0.00
11:53 am 11:53 Sunny 87 30.6 59 15 39 39 S 10 17 30.06 1018 10 16 0.00 0.00
12:53 pm 12:53 Mostly Cloudy 87 30.6 59 15 39 39 SSW 7 11 30.05 1018 10 16 0.00 0.00
1:53 pm 13:53 Mostly Sunny 89 31.7 60 15.6 38 38 undefined N/A 30.04 1017 10 16 0.00 0.00
2:53 pm 14:53 Partly Cloudy 89 31.7 59 15 36 36 S 9 15 30.03 1017 10 16 0.00 0.00
3:53 pm 15:53 Sunny 90 32.2 58 14.4 34 34 SW 6 9 30.02 1017 10 16 0.00 0.00
4:53 pm 16:53 Mostly Sunny 89 31.7 61 16.1 39 39 S 10 17 30.02 1017 10 16 0.00 0.00
5:53 pm 17:53 Mostly Sunny 89 31.7 60 15.6 38 38 WSW 9 15 30.02 1017 10 16 0.00 0.00
6:53 pm 18:53 Sunny 88 31.1 60 15.6 39 39 VRB 7 11 30.01 1016 10 16 0.00 0.00
7:53 pm 19:53 Sunny 86 30 60 15.6 42 42 SW 5 7 30.00 1016 10 16 0.00 0.00
8:53 pm 20:53 Clear 84 28.9 62 16.7 48 48 Calm 30.01 1016 10 16 0.00 0.00
9:53 pm 21:53 Clear 78 25.6 64 17.8 62 62 Calm 30.02 1017 10 16 0.00 0.00
10:53 pm 22:53 Clear 75 23.9 66 18.9 74 74 Calm 30.02 1017 10 16 0.00 0.00
11:53 pm 23:53 Clear 74 23.3 66 18.9 76 76 SW 5 7 30.02 1017 10 16 0.00 0.00

Powered by AerisWeather